Location: Hillsboro
(38.3483°N, 97.1938°W)
Time: 17:11:31
(UTC-05:00)

Daily predictions for brighter satellites

Satellite Brightness Start Highest point End
(mag) Time Altitude Azimuth Time Altitude Azimuth Time Altitude Azimuth
Milstar 3 4.5 19:17:01 10° WSW 19:25:28 51° S 19:41:10 10° ESE
Cosmos 1464 Rocket 4.3 19:31:28 10° SSE 19:37:22 46° E 19:43:14 10° NNE
CZ-4C R/B 3.7 19:33:58 10° WSW 19:38:54 37° NW 19:44:25 10° NNE
Cosmos 2278 Rocket 3.2 19:34:32 10° NNW 19:40:02 54° WSW 19:45:31 10° S
Cosmos 1805 4.4 19:37:48 10° SE 19:40:56 23° E 19:44:06 10° NE
ISS -1.5 19:39:23 10° S 19:41:31 16° SE 19:43:39 10° E
Cosmos 1953 3.3 19:39:02 10° SE 19:42:18 25° E 19:45:35 10° NE
ALOS 3.8 19:43:53 10° ESE 19:46:45 16° ENE 19:49:37 10° NNE
SL-19 R/B 4.3 19:41:24 10° SSE 19:46:59 72° ENE 19:52:53 10° NNW
Cosmos 2297 3.7 19:41:46 10° NNW 19:47:29 84° ENE 19:53:06 10° SSE
SKYMED 2 4.1 19:47:45 10° N 19:52:03 65° WNW 19:56:21 10° SSW
Meteor 1-22 Rocket 4.1 19:46:55 10° S 19:52:17 90° N 19:57:36 10° N
Cosmos 1707 4.0 19:48:42 10° NNW 19:52:24 46° W 19:56:06 10° SSW
Cosmos 1408 Rocket 3.9 19:50:40 10° N 19:54:49 43° E 19:58:54 10° SSE
MSX 4.4 19:49:19 10° S 19:55:00 63° WSW 20:00:43 10° NNW
GPS 2-04 Rocket1 3.7 19:52:44 10° SW 19:55:38 25° SSE 19:58:12 12° ESE
Cosmos 2369 Rocket 3.8 19:53:39 10° NNE 19:56:57 16° NE 19:59:45 11° E
IDEFIX/ARIANE 42P 4.4 19:53:46 10° SSW 19:58:32 36° W 20:03:21 10° NNW
USA 215 3.4 19:53:55 10° NE 20:00:18 55° SE 20:06:40 10° SSW
Meteor 1-24 Rocket 3.9 19:55:16 10° NNW 20:00:53 78° W 20:06:16 10° S
Cosmos 1603 4.0 19:56:33 10° S 20:02:00 47° ESE 20:07:29 10° NE
Aureole 2 Rocket 4.1 19:58:39 10° SW 20:02:54 49° WNW 20:07:05 10° N
Cosmos 1470 4.2 20:01:58 10° SE 20:04:30 17° E 20:07:03 10° NE
NOAA 12 4.0 20:01:16 10° SSE 20:06:30 75° ENE 20:11:47 10° N
SL-8 R/B 3.8 20:03:23 10° SW 20:08:03 56° SE 20:12:17 13° ENE
SAR-Lupe-1 4.1 20:05:55 10° S 20:09:27 81° WSW 20:13:02 10° NNW
SJ-6B 2.9 20:08:22 10° S 20:12:19 83° WSW 20:16:25 10° NNW
FREGAT/IRIS 2.5 20:09:44 10° SSE 20:12:49 80° E 20:15:55 10° N
CZ-4B DEB 4.1 20:14:31 21° E 20:14:55 21° ENE 20:17:27 10° NNE
Meteor 1-29 3.4 20:11:39 10° NNE 20:15:00 40° E 20:18:17 10° S
SeaSat 1 3.8 20:15:13 17° ESE 20:15:13 17° ESE 20:18:18 10° SE
Resurs 1-3 4.0 20:11:44 10° SE 20:15:52 42° ENE 20:20:01 10° N
Helios 1A 3.2 20:12:29 10° SSE 20:16:32 49° ENE 20:20:37 10° N
Cosmos 724 4.3 20:11:16 10° SSW 20:17:09 79° ESE 20:23:14 10° NNE
Resurs 01 Rocket 1.6 20:14:48 10° SSE 20:19:11 61° ENE 20:23:35 10° N
Cosmos 1674 3.8 20:17:20 10° NNE 20:20:37 25° ENE 20:21:24 23° E
In-Cosmos 22 4.2 20:15:35 10° N 20:21:23 80° E 20:27:07 10° SSE
Cosmos 1743 Rocket 3.9 20:19:48 10° N 20:24:03 42° E 20:27:54 12° SSE
Cosmos 1758 3.3 20:21:12 10° S 20:25:17 89° NE 20:29:24 10° N
ASTRO E2 4.1 20:22:15 10° WSW 20:25:43 27° S 20:27:45 18° SE
Abrixas 2.3 20:25:18 10° SW 20:28:17 89° WNW 20:29:31 32° NE
FengYun 1-2 T 4.2 20:24:06 10° SSE 20:29:31 62° ENE 20:34:57 10° N
Cosmos 1452 Rocket 3.6 20:27:07 10° NNW 20:32:24 83° WSW 20:37:38 10° SSE
Cosmos 1346 2.9 20:31:08 10° N 20:34:06 59° E 20:34:42 45° SE
ATLAS 5 CENTAUR R/B 2.9 20:32:53 10° SW 20:37:28 46° NW 20:42:26 10° NNE
Nadezhda 4 Rocket 3.9 20:39:18 10° N 20:45:37 77° E 20:51:48 10° S
GP-B 3.9 20:42:36 10° NNE 20:45:48 31° ENE 20:45:48 31° ENE
Meteor 1-21 Rocket 4.3 20:45:32 10° NNW 20:51:05 76° W 20:56:35 10° S
ASTEX 1 3.2 20:47:00 10° N 20:51:54 70° E 20:56:45 10° S
Cosmos 1544 3.7 20:49:34 10° SSW 20:53:14 58° W 20:56:57 10° N
Cosmos 1420 Rocket 3.9 20:48:09 10° NNW 20:53:29 84° ENE 20:56:54 23° SSE
Cosmos 1092 Rocket 3.9 20:47:28 10° N 20:53:39 64° E 20:58:29 17° SSE
Helios 1B rocket 3.4 20:50:47 10° N 20:54:46 48° WNW 20:58:43 10° SSW
CZ-2D R/B 3.1 21:00:07 71° ESE 21:00:24 76° ENE 21:04:18 10° N
CENTAUR R/B 2.3 20:58:54 10° SSW 21:04:49 73° ESE 21:11:30 10° NE
Cosmos 2026 Rocket 4.2 21:01:03 10° N 21:06:52 44° ENE 21:07:12 44° E
Cosmos 1634 Rocket 3.9 21:01:04 10° S 21:07:15 68° E 21:13:25 10° NNE
OAO 3 Rocket 3.5 21:02:44 10° W 21:07:22 52° S 21:07:53 49° SSE
Cosmos 1048 Rocket 4.4 21:05:38 10° SSW 21:10:54 64° WNW 21:16:08 10° NNE
H-2A R/B 2.9 21:14:25 72° WSW 21:14:26 72° W 21:18:19 10° NNW
FENGYUN 3A 3.8 21:10:21 16° S 21:14:39 70° WSW 21:20:03 10° NNW
Envisat 4.3 21:19:33 26° NNE 21:19:33 26° NNE 21:22:16 10° N
ISS -1.7 21:14:36 10° WSW 21:16:49 34° W 21:16:49 34° W
Cosmos 2151 4.1 21:16:52 10° N 21:19:19 33° N 21:19:19 33° N
ALOS 3.1 21:20:49 20° SSW 21:23:46 48° W 21:28:18 10° NNW
Cosmos 1174 4.2 21:20:00 10° SW 21:24:32 67° W 21:24:32 67° W
Gbstr 26 Del rocket 3.3 21:20:42 10° SW 21:25:12 79° NW 21:25:35 73° NNE
Cosmos 2195 Rocket 4.4 21:22:31 10° N 21:28:53 78° E 21:30:04 60° SSE
Cosmos 158 Rocket 4.2 21:30:46 10° SSW 21:35:35 61° WNW 21:40:26 10° NNE
BREEZE-M DEB (TANK) 4.3 21:22:00 10° SSW 21:38:16 52° SE 21:38:19 52° SE
Cosmos 1943 3.6 21:35:07 10° SW 21:40:39 59° WNW 21:46:14 10° NNE
Cosmos 1943 Rocket 3.2 21:36:05 10° N 21:39:39 33° NNE 21:39:39 33° NNE
Cosmos 2369 Rocket 2.2 21:35:57 10° NNW 21:41:35 79° WSW 21:41:35 79° WSW
USA 215 4.2 21:37:03 10° NE 21:43:10 44° NNW 21:49:17 10° WSW
Cosmos 2263 4.5 21:43:08 10° NNW 21:47:58 63° NNW 21:47:58 63° NNW
SeaSat 1 3.9 21:55:12 29° SW 21:55:12 29° SW 21:57:42 10° SW
ERS-1 Rocket 4.2 21:55:23 35° NNW 21:55:23 35° NNW 21:58:15 10° NNW
